To NAV CANADA Home Page Login to a new session Search on AWWS site Feedback and Comments Disclaimer Vers la page française équivalente Tips FAQ What's new on the site To the Forecasts and Observations / NOTAM section To "File a Flight Plan" website Publications and other links Update of the User's profile FIC Telephone Numbers My Weather Data Folder Route Weather Data Regional Weather Data Local Weather Data To the Forecasts and Observations / NOTAM section
Request Generated 10/25/2016 at 08:29:04 UTC . Weather information available at that time is displayed.



LWIS CYAS 250800Z AUTO 36018G23KT M05/M07 A3017=
LWIS CYAS 250700Z AUTO 36018G24KT M05/M08 A3017=
LWIS CYAS 250600Z AUTO 35016G21KT M06/M09 A3017=

CYAS - No TAF is issued for this station

Your time UTC time
Weather data provided by Environment Canada and NAV CANADA